Tracking 35331 objects as of 16-Sep-2026
HD Live streaming from Space Station
objects crossing your sky now

COSMOS 1472 DEB


COSMOS 1472 DEB is no longer on orbit


NORAD ID: 14202
Int'l Code: 1983-068E
Launch date: July 5, 1983
Source: Commonwealth of Independent States (former USSR) (CIS)
Launch site: PLESETSK MISSILE AND SPACE COMPLEX (PKMTR)
Decay date: 1983-08-16

Note: This is SATELLITE DEBRIS
Your satellite tracking list
Your tracking list is empty




NASA's NSSDC Master Catalog

Two Line Element Set (TLE):
1 14202U 83068  E 83228.16182167  .59625464 -10176-4 +60603-3 0  9998
2 14202 082.3072 020.1222 0015177 288.5163 073.2972 16.50150571006632
Source of the keplerian elements: AFSPC